Wind_Speed
13 12 18 17 16 15 14 13 13 13 13 14 13 13 12 11 10 10 9 7 5 5 5 5 6 7 8 9 9 11 13 16 17 17 18 17 18 16 14 13 13 13 13 13 13 13 13 13 12 11 10 10 10 10 10 10 10 10 10 11 11 11 12 12 12 12 12 13 14 16 16 17 18 18 18 18 18 18 18 18 18 18 19 19 18
15 13 18 18 16 15 14 14 13 14 13 14 13 13 12 11 10 9 8 6 5 4 4 5 6 7 8 9 10 11 13 16 17 17 19 18 17 15 13 12 13 14 14 14 14 13 13 12 12 11 10 10 10 10 9 9 9 9 10 10 11 11 11 11 11 12 12 12 12 13 15 16 17 18 18 17 18 18 18 18 18 18 19 19 19
15 14 19 19 17 16 15 14 13 13 13 14 13 13 12 11 10 9 8 6 5 4 5 6 7 8 8 10 10 12 13 16 18 18 19 19 16 14 13 13 14 15 15 14 14 13 12 12 11 11 10 10 9 9 9 9 9 9 9 10 11 10 9 9 11 12 13 14 11 10 12 13 16 17 17 17 17 17 18 18 18 18 19 18 19
14 15 19 20 17 16 15 14 13 13 13 13 13 13 12 11 10 9 8 6 5 4 6 7 8 8 9 10 10 12 13 16 18 19 20 19 15 14 13 14 15 15 15 14 13 13 12 12 11 10 9 9 8 7 7 7 7 8 8 9 9 8 8 9 12 14 17 19 16 12 10 10 13 15 15 15 15 15 16 16 18 18 18 18 18
15 16 19 20 18 16 15 14 13 13 13 13 13 12 11 10 9 8 7 6 5 5 7 9 9 8 9 10 11 12 13 16 18 19 20 18 15 14 14 14 15 14 14 14 13 13 12 11 10 9 8 8 7 7 7 7 7 7 7 8 7 8 10 13 17 20 22 21 19 14 10 9 9 9 10 12 13 13 14 15 17 17 17 17 16
16 16 17 18 19 17 15 14 13 13 13 12 12 12 11 10 9 8 7 5 6 7 10 10 9 9 10 10 11 11 13 16 18 19 19 17 15 14 14 14 14 14 14 13 13 12 11 10 9 9 8 8 8 8 9 9 9 8 9 9 9 11 13 17 21 21 21 20 17 12 9 8 5 5 7 9 12 12 12 13 14 15 15 15 15
16 16 17 16 18 19 16 15 13 13 12 12 12 11 10 10 9 8 7 6 7 10 11 10 9 9 10 11 11 11 14 17 19 20 20 17 15 14 14 14 14 14 14 13 12 11 10 9 9 9 8 8 8 9 10 11 12 12 12 13 13 14 16 20 22 20 19 18 13 10 10 8 4 3 5 8 11 12 11 10 12 14 14 14 14
16 17 18 15 17 19 16 15 13 12 12 11 11 10 10 9 8 8 7 7 9 11 12 11 10 10 10 11 11 12 14 17 19 20 20 17 15 15 14 14 13 13 13 12 11 10 10 9 9 9 8 8 8 9 11 12 13 14 14 14 14 16 19 21 21 20 19 16 11 10 9 8 4 3 4 7 10 12 13 10 11 12 13 13 13
16 18 18 15 17 18 16 15 13 12 11 11 10 10 10 9 9 8 8 9 11 13 13 11 10 10 11 11 12 13 15 17 19 20 19 17 16 15 14 14 13 13 12 12 12 11 11 10 9 8 8 8 9 11 12 13 13 14 15 16 18 19 22 21 20 19 16 12 11 12 11 10 6 3 5 7 9 12 13 9 9 12 12 12 12
18 19 16 14 18 18 16 15 13 12 11 10 10 10 10 10 9 9 10 11 13 14 13 12 11 11 12 12 12 13 15 18 20 20 18 16 16 15 15 14 13 13 13 13 13 12 11 10 10 9 9 9 11 12 13 14 14 15 15 19 22 22 22 20 20 17 13 11 11 14 13 10 6 5 6 7 8 9 9 5 8 11 10 11 11
19 18 15 15 19 18 17 15 13 12 11 11 11 10 10 10 10 10 11 12 14 14 13 12 12 12 12 12 12 13 15 17 19 19 17 16 16 15 15 14 14 14 14 13 12 12 11 11 10 10 10 11 12 14 15 16 17 17 17 21 24 24 22 21 20 14 12 13 12 12 10 8 8 8 8 7 7 6 5 4 6 7 8 9 9
18 17 14 16 20 18 17 15 13 12 11 11 11 11 11 11 11 11 12 13 14 14 14 13 13 13 13 12 12 13 14 17 18 17 16 16 16 15 15 15 14 14 13 12 12 12 11 11 11 11 12 13 14 16 17 19 19 19 20 23 26 25 22 21 18 12 12 13 13 13 9 8 9 10 9 7 7 6 6 6 6 5 6 6 6
17 15 12 16 20 18 16 14 13 12 11 11 11 11 11 11 12 12 12 13 14 14 14 14 13 13 13 13 12 13 14 15 16 15 15 16 15 15 15 14 14 12 12 12 12 12 12 12 12 12 13 15 16 17 18 20 20 20 22 24 26 24 21 19 15 12 12 12 11 10 10 10 12 11 9 8 7 7 8 7 6 5 5 5 6
16 14 12 17 20 17 16 14 13 12 11 11 11 11 11 12 12 13 13 13 14 15 15 14 14 14 14 13 13 13 14 14 14 14 14 15 15 14 15 14 13 12 11 12 13 13 13 12 12 13 15 16 17 18 19 20 20 20 21 23 25 23 22 18 13 12 13 12 11 10 13 14 13 12 11 9 8 8 8 7 7 7 6 6 6
15 13 13 17 18 17 17 15 14 13 12 12 11 11 11 12 13 13 13 13 14 15 15 15 14 14 13 12 12 13 14 14 14 14 14 15 15 14 15 14 13 12 12 12 13 13 13 13 13 14 15 17 17 18 19 20 20 19 19 21 23 23 22 16 10 11 12 11 11 12 15 15 14 13 12 11 9 9 8 8 7 7 7 6 6
15 13 13 16 17 17 17 15 14 13 12 12 12 12 11 12 13 14 14 14 14 14 14 14 14 13 13 12 12 13 15 14 13 14 14 15 15 15 15 15 14 13 13 13 14 14 13 13 13 15 16 17 18 18 19 19 19 18 18 19 22 22 21 16 10 9 10 10 9 11 14 14 14 13 12 11 10 10 9 8 8 7 7 6 5
15 13 13 16 17 17 17 16 15 13 13 12 11 11 11 12 13 14 14 13 13 13 13 13 13 13 13 12 12 13 15 15 14 14 14 15 15 15 16 16 16 15 14 14 15 14 14 14 14 15 16 17 18 18 18 18 18 17 17 17 20 21 20 16 10 10 10 9 7 9 12 12 13 13 12 12 10 10 9 9 8 7 6 5 5
15 13 13 16 17 17 16 16 16 14 13 12 12 12 11 12 12 13 13 13 12 12 12 12 13 13 13 13 13 14 15 15 15 15 15 16 15 15 16 16 16 16 15 15 15 14 14 14 14 15 16 17 17 17 17 17 17 17 17 17 18 19 19 16 11 10 10 7 6 8 10 11 12 11 11 11 10 10 9 9 9 8 7 6 5
14 13 13 14 15 15 14 14 15 14 14 13 13 12 12 12 12 13 12 11 11 11 11 12 12 12 13 14 14 15 15 16 15 15 16 16 15 15 16 17 16 16 16 16 16 15 14 14 14 14 15 16 16 16 16 16 16 16 16 17 18 20 19 15 10 9 7 5 6 8 9 10 10 10 9 9 8 8 8 9 9 8 7 6 5
13 13 12 12 14 13 12 12 12 12 12 13 13 13 12 12 12 12 12 11 11 11 11 11 11 12 13 14 15 16 16 16 16 15 16 16 16 15 16 17 16 16 17 17 16 15 14 13 13 14 14 14 15 15 15 15 15 15 15 15 17 18 15 11 9 8 6 5 7 8 9 9 9 9 8 7 7 6 6 7 7 6 6 5 5
14 13 12 12 14 13 12 12 12 11 10 10 12 13 13 13 13 12 11 11 11 11 11 11 11 12 13 13 15 16 14 15 16 16 16 16 16 15 15 16 16 15 16 18 17 15 14 13 12 12 12 13 14 14 13 13 13 14 13 13 15 15 12 9 9 9 5 5 7 7 8 9 8 8 7 7 6 6 5 4 4 4 4 5 5
14 13 13 14 14 15 15 14 15 13 11 10 10 12 14 14 14 13 12 11 11 10 10 9 9 10 12 14 13 11 10 11 15 16 17 18 16 16 16 16 16 15 15 17 17 16 14 12 12 11 11 11 11 11 11 11 12 12 11 13 14 10 10 10 8 8 5 3 6 6 7 8 8 7 6 6 5 5 5 4 3 2 1 2 4
13 13 13 15 15 15 15 15 14 13 13 12 10 11 13 14 13 13 12 9 9 9 8 8 8 8 10 12 11 7 7 9 12 12 15 19 18 18 17 17 17 16 15 15 16 16 14 12 11 11 10 10 10 9 8 8 10 10 10 12 10 7 10 10 8 7 3 2 5 5 6 6 7 6 5 5 4 3 3 3 3 2 1 0 1
13 13 13 14 15 15 16 15 14 13 13 13 11 11 13 12 11 10 9 9 9 9 10 10 11 10 7 9 10 10 9 8 9 10 13 18 20 20 19 18 18 17 16 15 15 14 14 13 12 11 10 9 8 6 4 5 7 7 8 8 6 7 9 8 8 5 3 2 4 4 5 5 6 5 5 5 4 3 3 3 2 1 1 0 1
12 13 13 14 15 15 14 13 13 13 13 12 12 13 13 11 10 9 9 11 11 12 14 13 13 12 10 10 12 12 12 11 12 11 12 15 19 21 20 19 18 17 16 16 16 14 14 13 12 12 10 8 7 6 6 4 4 4 5 5 6 6 6 7 9 5 4 3 3 3 5 4 5 4 5 5 4 4 3 3 3 2 1 0 0
11 12 12 13 15 14 13 12 12 13 13 12 13 15 13 12 12 12 12 13 13 13 14 14 13 13 14 14 14 12 13 14 15 14 12 13 15 18 19 18 18 18 18 17 17 16 15 13 12 11 9 8 8 9 8 6 4 4 5 6 6 5 6 7 8 4 4 3 3 2 3 3 4 4 5 5 4 4 4 3 3 2 2 1 1
9 10 12 12 14 13 12 12 13 14 13 13 15 15 14 14 12 12 13 13 13 13 14 14 14 15 16 15 15 14 14 15 15 16 15 13 12 13 14 15 16 17 19 19 18 18 15 14 13 11 9 9 10 10 8 7 6 6 6 6 6 6 6 6 7 4 5 3 3 1 2 3 3 4 5 5 5 5 4 3 3 2 3 2 2
8 9 10 11 12 11 11 12 13 13 12 14 15 14 14 11 11 13 14 13 13 13 14 14 15 16 17 17 16 16 15 16 16 18 17 15 14 13 14 15 15 16 17 18 19 18 15 14 14 13 12 11 11 10 9 8 7 7 6 7 7 6 7 6 7 7 2 3 3 1 0 1 2 3 4 5 4 3 3 4 4 3 3 2 2
8 8 8 9 10 10 11 11 11 10 11 13 14 14 13 11 11 12 12 12 12 12 14 14 15 16 17 17 17 16 17 18 18 20 19 18 16 15 16 16 14 14 16 17 18 18 16 15 15 14 13 13 12 11 10 9 8 7 7 7 7 7 8 8 7 8 4 3 3 2 1 2 2 4 4 3 3 2 3 4 3 3 3 1 2
8 7 6 7 9 11 11 10 10 10 10 12 13 12 11 10 11 11 10 10 12 12 13 14 14 16 17 17 18 18 18 19 18 19 19 17 17 16 16 16 14 14 15 15 16 18 18 17 17 15 14 14 13 12 11 10 9 8 8 8 7 7 7 8 7 7 6 4 4 2 2 2 2 3 3 2 2 3 4 3 2 3 2 1 2
7 7 5 5 7 10 10 9 9 9 10 11 12 12 10 10 11 11 11 12 13 13 13 13 11 12 14 14 16 17 17 18 16 16 16 16 19 18 16 16 15 15 15 14 17 20 20 18 18 16 14 15 13 13 12 10 10 9 8 8 8 6 6 7 7 7 6 4 5 3 2 2 2 3 3 2 2 4 3 3 3 3 2 2 2
6 7 6 4 5 8 9 9 10 9 11 12 13 13 11 10 12 12 13 13 14 14 13 12 10 7 8 10 10 12 15 16 16 15 16 17 20 20 17 15 14 15 15 15 18 22 21 19 18 17 14 15 13 13 13 11 11 10 9 9 7 7 7 7 6 7 7 4 4 5 3 2 1 2 3 3 4 4 3 3 3 2 2 2 2
5 6 7 5 3 5 6 7 9 10 11 12 13 12 10 10 12 13 13 14 14 14 13 12 12 8 7 7 6 9 13 14 16 16 16 18 19 18 16 14 13 14 15 15 17 19 20 19 19 18 16 15 14 14 13 12 12 10 10 9 8 8 8 7 6 7 8 6 4 4 5 4 3 2 3 4 4 4 4 3 2 1 1 1 1
5 5 6 5 4 5 5 7 7 8 10 11 11 9 9 10 12 12 12 13 14 14 13 12 12 10 6 4 2 7 12 13 15 15 15 17 17 17 16 14 13 13 14 16 16 16 17 17 18 18 17 16 15 15 14 13 13 11 11 10 9 9 8 8 7 7 7 7 6 3 3 5 4 2 3 3 4 6 5 3 2 0 1 0 2
6 6 6 6 6 6 6 7 6 7 8 9 9 8 9 10 11 12 13 14 13 13 12 10 9 8 7 6 5 6 10 11 12 13 14 16 16 17 16 15 15 15 16 17 16 16 16 16 17 18 18 17 16 16 15 14 13 12 12 10 9 10 8 8 7 7 7 6 6 6 6 5 4 4 4 2 3 5 5 3 1 1 2 3 4
7 6 6 6 6 5 6 6 6 6 7 8 9 9 10 9 11 13 14 15 14 13 12 10 9 8 9 9 9 8 9 8 9 11 13 14 15 16 15 14 15 16 17 17 17 18 18 17 18 18 18 18 17 17 16 15 14 14 14 11 9 9 8 7 7 6 6 5 5 6 6 5 4 4 4 2 1 3 4 4 3 3 4 5 5
7 6 7 7 6 6 6 4 4 5 7 8 8 9 9 9 11 12 12 14 14 13 11 12 11 10 11 11 10 9 8 8 9 10 12 14 14 15 15 13 14 14 16 18 18 18 19 19 20 20 19 18 18 19 19 18 16 15 15 12 10 9 8 8 8 7 6 6 6 6 7 7 6 4 3 3 2 1 4 7 8 9 8 7 7
7 8 7 7 6 6 4 4 4 4 5 6 6 6 7 8 10 10 10 12 13 12 12 13 11 11 13 11 10 9 7 8 8 9 11 13 15 15 15 14 13 14 16 17 17 18 18 17 18 18 19 20 19 20 21 19 17 15 14 13 11 9 9 9 9 8 7 7 8 8 9 9 7 5 4 2 2 3 5 9 10 10 10 9 9
6 6 5 5 5 4 3 5 4 3 4 5 5 5 5 7 8 9 9 10 12 13 14 13 11 12 13 12 11 9 7 7 7 8 9 11 15 16 16 15 14 14 16 17 17 17 17 18 17 17 20 23 21 20 20 19 17 15 15 15 13 11 10 11 10 8 9 10 11 12 10 7 7 7 6 4 3 4 5 6 7 7 7 7 8
4 4 3 5 5 4 1 3 3 3 4 3 4 4 5 7 7 7 8 10 12 12 13 11 10 12 13 12 11 9 8 8 9 9 10 11 13 15 16 16 15 15 15 16 18 18 18 20 19 19 21 23 23 20 18 18 17 16 16 15 13 13 13 14 12 9 11 13 12 11 9 7 7 8 8 7 5 6 5 4 5 5 4 4 5
5 3 3 4 4 3 2 2 2 3 3 2 4 4 6 7 7 7 8 10 11 11 11 10 10 12 12 10 10 10 10 10 10 11 12 12 12 13 15 15 16 17 16 17 18 19 20 21 20 21 22 23 24 19 18 19 17 16 16 13 13 14 15 15 14 12 12 13 12 10 8 8 9 9 8 8 7 8 7 6 6 5 3 3 3
8 6 5 5 5 4 4 4 3 3 3 3 4 4 5 7 6 6 6 8 10 9 9 10 10 11 11 10 9 11 12 11 11 12 12 12 13 14 15 15 16 17 18 19 19 20 22 22 22 22 22 24 24 19 19 18 15 16 15 13 14 15 15 15 14 14 14 13 12 12 11 11 11 9 8 8 7 8 7 6 6 5 5 5 4
10 9 8 7 6 5 5 4 2 2 3 4 5 4 5 8 8 7 6 7 9 8 8 9 9 9 9 9 10 12 12 12 12 12 12 12 13 14 15 16 17 18 19 20 20 20 22 22 20 20 22 25 25 23 21 19 17 16 14 14 14 14 14 15 15 15 14 13 12 11 11 11 11 9 8 7 8 9 8 7 6 5 6 5 4
9 10 9 7 7 7 7 5 2 2 3 5 6 5 7 9 10 8 6 5 7 8 8 8 8 8 9 10 10 11 11 11 12 12 13 13 12 12 14 16 17 19 20 21 21 22 23 22 21 21 22 23 24 24 22 22 22 19 17 15 12 12 13 14 15 15 14 15 13 12 10 9 10 11 9 8 8 7 7 7 7 7 6 4 4
8 7 7 7 7 8 7 5 3 3 4 5 5 4 5 6 7 6 5 4 6 8 8 7 8 8 9 10 10 10 11 11 12 13 14 15 14 12 13 15 17 19 20 21 22 23 22 21 21 22 20 18 19 22 22 23 23 21 20 17 10 11 12 11 12 13 14 15 13 12 12 10 10 11 10 9 8 6 6 7 8 8 6 4 5
7 8 7 7 7 6 6 4 3 3 3 3 4 3 4 5 5 4 4 5 6 7 8 8 9 9 9 9 10 11 12 12 13 14 15 16 16 14 14 14 15 18 18 20 23 21 19 18 19 20 19 17 16 19 20 21 22 20 21 19 12 9 10 11 11 10 11 12 11 11 12 11 11 12 12 10 9 7 6 7 7 7 6 5 6
9 9 8 7 5 4 4 3 3 3 2 2 2 3 4 4 5 5 5 7 7 8 10 10 10 10 9 9 10 11 12 13 14 15 16 17 16 15 16 15 15 16 16 19 21 19 17 17 20 19 17 18 18 19 19 18 21 21 21 21 17 11 9 11 12 10 9 11 11 10 10 10 10 11 11 10 10 9 6 6 5 6 6 5 5
8 7 6 5 4 2 2 2 2 2 2 1 2 3 3 4 5 5 6 8 10 11 12 12 10 10 11 10 10 11 12 14 15 16 17 17 16 16 16 16 16 16 17 19 20 18 17 17 19 19 18 19 20 20 19 17 19 20 21 20 18 15 11 10 11 11 10 10 10 10 10 10 10 10 11 10 10 9 7 7 7 6 6 5 5
6 5 4 3 2 2 2 1 1 1 2 2 2 3 4 5 5 6 7 8 10 11 12 12 11 12 13 11 12 13 14 16 16 17 18 18 18 17 17 17 16 16 18 18 18 19 20 18 18 19 19 20 19 19 19 18 17 17 18 19 18 16 13 10 11 11 10 10 11 12 12 12 10 11 11 11 10 8 8 8 7 5 6 5 4
4 3 2 1 1 2 2 2 1 1 2 3 3 4 5 5 6 7 8 8 9 10 11 12 12 13 13 13 15 17 18 18 19 19 19 19 19 18 17 16 15 16 18 18 18 19 21 20 19 19 19 20 19 19 20 17 16 16 17 18 19 17 15 14 12 11 11 12 11 13 14 14 12 12 12 12 11 9 8 8 6 5 5 4 4
3 3 2 1 1 2 2 2 2 2 3 4 5 6 6 6 7 8 9 10 10 11 12 13 13 14 15 16 19 22 22 21 21 22 21 20 18 17 17 15 15 16 17 18 18 18 20 20 19 18 19 20 18 20 21 19 18 18 17 18 18 17 15 14 14 14 12 11 11 13 15 14 12 12 12 12 10 9 8 7 7 6 5 5 6
Wind_Direction
161 168 168 169 164 161 159 159 159 159 160 160 159 158 159 158 159 160 158 149 128 118 104 82 89 88 74 72 73 87 103 115 123 123 120 119 119 118 115 110 104 104 105 106 105 104 104 103 103 101 99 101 102 105 106 106 107 106 103 99 99 99 95 84 70 63 73 85 82 78 84 88 84 82 79 78 77 75 74 73 71 71 71 70 70
165 164 167 170 164 163 160 161 161 161 162 160 161 159 160 163 166 166 159 147 127 119 105 94 104 94 79 77 77 92 106 119 127 125 123 122 118 118 117 112 109 108 108 107 105 104 103 103 103 102 100 99 102 105 105 106 107 105 102 98 96 97 90 77 67 66 73 82 87 83 81 85 87 83 79 76 75 75 75 74 72 71 72 72 72
164 159 167 170 163 163 162 162 163 162 163 161 163 161 164 169 170 168 158 146 130 119 110 114 114 96 84 81 82 97 109 122 129 128 127 122 119 121 118 112 111 110 109 106 105 104 103 103 101 100 99 99 100 99 102 104 107 107 103 100 101 97 83 71 70 75 77 74 79 85 79 83 91 87 80 75 72 75 76 76 74 73 74 73 73
157 155 167 168 162 165 161 162 164 164 165 165 166 165 169 172 171 167 158 147 132 121 123 128 119 99 89 86 90 100 110 124 131 132 130 123 122 122 116 114 113 112 109 107 106 105 103 101 98 96 96 95 94 93 98 104 111 112 108 106 103 92 78 76 78 81 79 72 68 64 65 82 94 91 83 75 71 72 73 75 75 73 73 73 72
149 154 163 163 162 164 160 164 166 167 169 168 168 169 171 172 171 167 161 152 135 132 137 134 120 104 93 91 97 102 112 127 132 134 132 125 123 121 118 116 114 113 109 108 107 104 101 99 96 94 93 90 87 90 94 102 113 114 110 106 100 91 85 87 86 83 79 74 72 69 64 75 89 89 79 71 70 69 70 73 74 73 71 71 72
149 156 156 157 161 161 162 166 166 169 170 170 172 171 173 173 173 170 166 156 142 142 143 136 122 108 99 99 101 107 118 130 134 135 135 129 125 123 121 118 116 114 110 110 108 103 98 96 97 93 90 87 87 90 90 94 99 103 102 99 99 95 92 92 87 82 80 76 74 78 75 75 84 83 68 63 67 68 70 74 75 74 71 69 70
149 153 151 152 160 160 162 166 167 171 170 173 174 173 175 176 177 174 170 157 150 150 145 137 126 113 104 106 107 114 126 133 137 138 138 132 127 127 125 122 119 116 113 111 107 102 99 99 99 95 89 86 89 90 89 90 92 96 96 97 99 98 96 94 87 81 81 79 79 86 85 79 81 93 79 72 75 75 69 71 79 78 76 73 71
148 148 149 152 158 158 159 165 167 169 170 174 175 177 178 179 180 177 171 159 155 153 147 140 130 119 113 115 117 124 131 134 138 140 139 135 132 132 130 127 123 120 116 111 106 102 102 103 100 94 86 85 91 91 91 91 92 94 95 95 96 97 95 90 84 78 74 77 84 83 80 76 75 108 95 84 88 88 78 73 84 81 78 76 73
146 146 152 160 158 156 159 162 164 167 169 172 175 178 178 179 180 177 168 158 158 155 148 144 136 125 124 126 127 130 131 133 138 142 141 139 137 137 135 131 129 126 118 110 107 104 102 101 97 90 87 92 94 94 94 94 94 93 94 93 93 94 91 87 82 77 77 85 95 95 92 81 75 106 100 91 94 96 93 86 90 86 80 79 76
146 148 157 167 162 157 159 160 162 164 166 170 173 175 176 177 176 173 163 159 161 157 151 149 143 135 135 135 135 134 132 136 140 144 145 143 142 142 140 138 136 129 120 112 109 107 103 100 97 93 94 98 98 98 98 97 98 99 99 98 96 91 86 83 79 76 82 90 104 121 119 100 86 101 105 101 100 102 104 97 97 100 93 86 82
147 151 157 165 165 161 159 159 159 160 163 167 169 172 173 174 173 167 161 163 164 160 156 155 151 145 144 141 138 136 136 142 145 147 149 146 146 147 146 145 140 131 123 116 113 111 108 104 98 98 100 102 104 104 103 101 100 101 103 102 97 91 85 81 79 78 83 83 90 106 109 101 95 98 108 105 104 106 109 110 109 110 100 87 82
149 154 165 167 165 163 160 159 157 158 161 163 166 169 169 171 170 165 164 166 166 163 161 161 159 155 151 146 141 141 143 149 150 151 151 150 150 149 149 147 140 132 126 120 117 115 110 105 101 103 106 107 108 107 105 103 101 100 102 101 96 91 85 79 82 88 88 92 98 101 99 98 96 98 111 110 109 106 105 117 119 112 96 88 81
153 157 170 167 164 163 161 160 158 158 158 160 162 165 168 171 169 167 169 169 169 167 166 166 166 163 157 151 147 144 145 153 156 156 155 155 155 152 151 147 139 134 132 127 122 119 112 107 107 109 110 110 110 108 107 104 102 101 100 99 96 94 90 84 88 93 90 95 100 106 103 95 94 97 105 108 111 107 104 111 117 116 103 95 87
157 161 168 167 167 164 162 161 160 159 157 158 160 164 168 171 171 170 171 173 174 172 172 170 170 169 163 156 150 145 147 156 161 163 161 159 161 160 155 150 142 140 138 131 126 121 115 112 114 114 114 113 111 109 107 104 102 102 102 99 97 94 91 85 83 88 88 90 89 90 90 90 94 97 103 107 108 104 103 107 112 113 108 103 94
161 166 170 172 171 165 162 163 162 161 158 158 158 164 169 173 174 173 176 177 178 178 176 174 174 173 167 158 154 154 155 162 165 166 167 163 166 165 157 152 148 145 139 132 129 123 118 119 120 120 118 114 113 111 108 105 103 103 103 100 97 94 91 88 82 83 85 88 89 89 88 88 90 92 98 102 102 100 101 105 108 111 113 112 103
166 169 171 174 175 169 165 164 164 162 158 159 160 164 170 175 176 177 180 180 181 182 180 178 176 172 168 165 166 167 164 168 170 169 171 166 168 167 157 155 152 144 138 136 133 126 124 125 126 126 121 118 116 113 110 107 104 101 99 98 99 99 97 96 90 85 86 86 87 89 91 89 88 89 92 96 101 103 106 108 110 112 114 115 115
169 173 174 176 178 173 169 166 163 162 160 159 162 166 172 175 177 179 182 183 183 182 181 178 173 170 170 174 177 176 171 172 174 173 174 170 171 168 160 157 153 144 140 140 136 131 131 131 130 128 125 122 119 116 113 109 105 101 98 97 99 103 106 104 99 97 94 93 93 89 91 91 89 89 89 93 96 99 104 109 112 114 113 116 119
173 175 177 177 179 176 173 168 162 163 163 162 166 169 176 179 178 180 183 183 182 180 176 173 173 173 174 177 181 182 178 176 180 178 176 176 174 171 165 160 154 147 143 144 140 137 136 134 132 130 129 126 123 119 115 112 108 104 101 98 99 102 100 94 90 93 96 109 111 95 89 89 89 89 91 95 98 98 100 104 110 114 116 117 118
175 176 180 175 175 176 175 173 168 168 167 168 171 173 179 182 182 182 182 180 178 176 172 173 176 178 177 177 182 188 183 181 185 183 181 180 175 177 172 162 159 151 147 148 145 143 142 138 133 132 132 129 126 121 117 116 111 108 106 104 101 94 84 81 85 88 92 104 98 90 87 84 85 85 86 90 96 101 104 108 111 116 120 125 130
178 177 177 172 173 176 177 179 175 173 174 178 178 178 180 182 185 183 180 176 172 170 170 174 174 179 181 179 184 190 190 187 187 188 188 183 179 183 179 168 164 158 151 151 151 149 145 141 137 133 133 132 128 124 121 117 113 112 111 108 103 92 82 87 96 91 92 95 84 83 83 79 80 78 75 74 76 83 98 115 121 125 127 133 143
182 178 176 174 174 177 181 182 177 177 181 189 192 185 182 184 185 182 179 172 166 165 165 170 174 180 184 185 188 187 189 190 187 191 192 187 186 187 185 177 170 165 157 155 157 154 150 148 142 136 135 135 129 125 122 119 117 114 113 108 99 92 91 92 90 84 83 84 81 81 79 79 79 76 72 69 67 64 68 86 106 124 129 131 143
185 180 180 181 180 182 187 186 182 183 184 194 210 200 188 186 185 180 176 170 165 161 162 166 169 183 189 185 187 187 189 192 191 193 193 191 191 191 192 185 177 174 168 163 162 159 158 154 149 144 136 134 130 123 120 121 118 115 115 101 89 93 102 98 94 97 105 90 80 77 72 73 73 72 70 66 64 59 59 56 53 63 87 119 140
187 181 183 186 184 187 188 186 184 185 185 188 210 220 205 190 185 181 173 167 160 154 161 165 168 195 200 179 174 193 207 203 198 200 198 196 195 196 197 192 186 181 177 173 170 167 165 160 157 151 142 139 126 112 113 119 120 123 110 90 91 111 104 99 102 113 152 108 78 68 63 64 62 62 64 62 58 51 55 51 45 51 42 342 155
186 183 189 188 185 190 188 185 184 183 187 189 200 220 218 200 187 183 177 175 168 166 175 178 184 198 199 176 173 190 203 207 211 218 215 206 200 200 201 197 194 188 184 182 181 178 171 169 165 158 156 147 123 108 128 131 132 127 93 85 117 115 99 107 111 125 192 121 83 68 60 53 52 50 52 57 49 33 18 12 9 30 64 273 287
182 186 191 192 193 197 192 190 186 183 189 194 202 214 217 204 187 185 188 189 189 191 189 189 194 195 193 189 188 190 192 199 212 222 227 221 208 204 205 202 201 196 192 188 189 188 179 176 173 167 160 141 138 160 181 180 151 124 106 130 138 111 114 127 117 134 210 143 100 75 69 47 46 37 29 38 25 16 2 347 337 345 17 337 183
177 182 185 193 197 195 193 197 190 184 190 199 211 217 212 196 189 194 195 196 199 200 198 197 199 202 205 203 200 197 195 203 212 213 220 232 224 212 208 207 208 204 200 197 194 193 184 181 182 175 161 148 168 181 183 185 167 146 150 149 131 122 136 127 123 155 247 172 124 77 78 46 35 23 7 14 3 356 353 345 329 333 354 347 102
174 177 184 192 192 189 190 194 192 191 195 205 216 220 212 196 197 208 206 207 205 208 210 204 205 208 211 215 210 198 196 207 213 211 210 220 223 214 203 202 210 211 209 203 199 195 184 184 189 180 176 179 185 185 184 181 169 163 161 150 142 146 143 129 133 149 276 225 139 100 72 38 17 6 351 356 360 359 2 5 348 345 6 7 73
176 177 183 188 189 188 183 185 190 191 194 209 218 218 214 200 206 219 218 218 215 218 219 213 214 216 217 223 216 199 198 207 209 210 210 213 217 208 192 190 200 213 218 211 207 198 182 189 192 183 188 190 188 185 183 182 174 171 169 161 158 156 147 142 145 145 235 236 143 134 13 12 356 350 348 354 3 27 30 13 356 346 356 359 46
175 178 181 184 191 186 179 186 188 187 194 210 218 217 216 208 213 224 226 227 225 228 232 232 229 229 229 226 219 210 208 211 208 209 211 214 220 212 196 191 192 208 224 219 215 201 183 192 193 186 193 191 189 186 182 184 179 176 177 168 166 173 159 146 151 147 159 217 191 176 286 319 344 345 355 7 17 38 13 355 355 357 357 2 39
170 174 178 185 194 189 186 196 191 188 197 206 214 218 221 222 224 232 236 234 234 236 239 241 235 233 235 227 224 223 218 216 214 213 213 210 214 215 205 198 190 199 217 213 211 201 188 195 193 188 195 191 190 188 183 186 185 183 182 172 172 184 167 148 156 155 159 215 233 206 247 296 337 351 360 26 46 4 353 9 23 23 33 61 50
165 168 179 196 199 196 192 197 200 196 201 210 216 224 226 229 241 243 242 243 246 248 240 236 236 235 233 225 225 228 224 219 219 217 212 207 212 219 213 205 193 194 205 200 206 206 193 196 194 187 193 193 191 190 189 189 191 190 184 180 175 175 166 159 167 160 161 222 261 254 239 278 331 360 12 25 30 359 2 52 33 22 77 69 41
161 168 179 194 192 192 190 195 209 210 213 220 220 228 229 229 246 250 248 249 251 255 253 252 251 238 224 216 213 226 229 223 225 221 211 211 218 220 214 208 202 202 204 199 213 216 201 197 195 187 191 193 192 193 190 190 194 192 187 184 174 174 173 167 175 171 162 187 256 284 291 298 359 32 36 34 33 21 23 48 29 39 96 49 28
156 175 182 183 169 174 191 198 208 215 219 226 226 232 236 235 246 252 255 256 257 263 271 277 272 262 240 218 200 220 230 227 224 216 210 215 217 217 214 211 212 215 213 208 222 223 205 200 198 191 190 192 194 195 190 192 194 190 190 184 175 183 181 171 182 185 172 165 194 278 303 311 340 23 33 33 37 40 32 9 5 75 124 356 49
151 176 178 179 179 177 204 209 210 220 222 233 237 232 232 235 245 253 257 259 264 270 275 284 283 286 275 248 236 228 225 223 221 213 213 217 214 217 219 217 216 217 220 218 223 218 204 202 200 196 195 192 194 195 191 193 193 190 191 182 183 194 185 175 184 192 185 172 173 185 246 279 304 328 336 6 32 32 23 351 322 190 194 108 123
167 182 178 188 197 194 213 223 225 231 229 241 244 233 231 239 250 258 262 264 268 273 278 283 283 288 283 276 296 260 230 222 225 222 219 218 216 219 220 219 215 214 221 220 217 211 204 204 202 200 200 196 196 197 193 194 192 192 191 182 190 198 186 181 185 189 193 183 173 173 196 231 263 280 284 308 27 21 18 10 329 206 166 123 129
171 178 184 195 202 206 218 227 229 230 236 246 247 245 249 253 260 260 262 270 273 273 276 278 275 279 282 287 295 275 246 239 242 235 225 221 219 219 221 221 215 218 225 220 217 214 207 205 204 201 202 201 199 198 195 194 192 193 195 188 194 194 182 191 192 189 194 186 179 189 200 204 225 250 249 248 332 11 39 73 79 110 129 127 137
169 177 183 183 191 210 211 203 216 233 246 255 255 256 261 264 266 264 262 270 275 274 270 273 276 276 277 285 292 279 259 259 259 247 236 228 222 220 221 222 221 227 229 223 221 221 214 211 206 201 204 204 201 204 199 193 190 195 196 188 193 191 185 200 199 196 202 195 191 203 214 205 200 218 227 228 223 100 90 99 93 90 95 104 120
182 196 188 170 186 212 190 159 183 230 251 265 268 267 273 271 272 271 266 266 268 269 269 272 274 276 279 281 281 275 265 264 257 245 240 233 227 224 222 225 230 231 229 227 228 226 224 224 212 202 207 204 202 207 201 193 193 197 195 187 190 191 192 205 201 199 204 203 203 205 217 217 197 190 212 228 188 152 116 107 98 89 85 85 91
194 204 182 154 188 221 172 144 162 217 239 262 273 276 276 269 269 272 273 272 271 271 274 278 278 280 286 285 278 272 263 263 253 238 237 234 230 228 227 229 233 232 229 230 231 225 226 234 225 213 213 205 203 208 199 192 191 191 195 194 191 188 196 207 201 203 211 213 217 214 219 221 198 191 198 208 194 164 140 119 105 91 83 81 79
202 207 175 160 189 220 210 128 147 211 221 240 260 268 271 271 274 276 278 280 281 279 279 285 283 283 286 282 279 271 260 265 259 242 236 237 234 229 231 234 234 235 234 233 231 224 224 233 230 222 219 209 208 213 202 194 191 191 199 202 202 200 204 210 204 206 216 221 224 221 221 211 201 207 203 201 191 168 171 171 140 117 94 89 82
182 197 184 176 184 192 204 168 169 207 210 222 241 248 259 268 272 274 280 282 283 281 283 284 273 275 281 277 271 264 260 264 261 251 241 240 240 236 238 240 237 235 237 236 233 228 227 229 227 226 225 214 211 216 209 202 199 199 200 197 205 210 212 215 213 214 216 220 224 221 219 209 207 214 207 205 191 171 185 191 163 159 155 130 105
182 181 182 184 186 192 210 208 188 206 221 227 241 248 254 255 253 255 269 282 286 279 279 282 271 267 271 268 262 259 262 262 257 253 245 240 240 241 241 242 241 239 239 237 233 231 227 224 224 224 223 214 211 215 210 202 200 206 202 190 197 208 216 221 222 221 216 215 222 220 216 213 213 212 203 210 205 184 187 188 176 171 157 150 140
191 189 196 196 189 193 221 231 192 186 227 230 236 244 246 248 250 250 249 266 279 275 271 277 274 266 261 260 258 258 261 260 257 256 250 246 245 246 246 243 242 244 242 238 235 231 223 219 219 219 216 210 208 210 208 203 203 203 198 195 198 206 218 226 227 225 217 213 220 221 219 219 216 212 205 208 211 207 199 189 187 175 153 150 142
198 198 203 204 196 197 218 233 199 190 238 239 235 235 242 251 257 258 251 254 272 278 275 272 267 261 258 259 259 258 258 254 257 263 263 262 258 251 249 243 238 243 244 238 233 229 222 216 214 218 218 210 207 209 210 212 211 202 196 197 199 207 217 226 227 224 218 216 221 221 220 224 218 211 212 207 204 209 204 196 194 181 170 171 152
200 196 198 204 203 204 214 217 192 204 243 258 256 249 247 253 259 267 280 275 273 276 272 265 260 257 259 265 264 257 254 254 259 266 271 273 270 257 249 243 238 239 238 235 233 228 223 216 212 220 221 209 208 212 212 215 216 211 207 200 190 209 219 218 216 219 222 223 227 223 216 222 221 212 211 207 204 207 200 201 198 184 186 189 163
184 185 188 198 198 198 205 202 196 213 244 282 296 288 268 260 254 256 277 275 266 266 263 259 255 251 254 261 263 260 258 262 263 265 268 271 274 273 268 261 251 242 234 235 234 224 221 218 213 219 219 207 206 213 213 213 214 212 211 206 197 207 207 196 198 205 216 221 225 223 218 221 221 212 210 211 215 214 199 199 196 186 189 181 163
178 187 190 193 191 193 200 193 197 220 256 308 311 281 263 263 255 240 247 258 256 258 260 260 256 252 251 250 254 263 268 268 265 262 262 264 268 272 272 270 264 256 248 244 238 223 215 217 217 218 217 212 209 215 219 215 211 208 207 207 207 213 203 193 198 194 196 207 211 215 214 210 207 202 204 211 211 201 190 193 186 178 177 167 167
177 186 186 186 183 182 189 174 181 201 223 270 291 268 252 248 252 249 245 249 252 254 257 259 259 254 253 254 258 267 272 272 267 262 261 261 261 263 266 268 266 266 263 254 245 233 220 217 221 221 219 220 217 218 221 216 210 209 208 204 203 210 205 198 207 202 194 196 198 204 202 197 203 199 193 197 196 185 186 188 172 165 169 166 170
176 184 187 186 173 167 169 157 155 196 211 234 263 256 253 246 244 249 247 244 249 254 257 259 260 260 260 265 271 272 269 268 267 263 262 261 259 259 260 262 266 269 266 255 243 236 229 224 227 228 225 225 222 216 216 213 211 213 208 200 200 205 203 202 214 213 201 191 193 202 196 190 199 194 185 183 179 181 192 181 164 168 176 171 171
174 180 197 189 157 155 145 135 149 236 249 263 269 248 250 250 244 247 247 246 248 252 256 254 251 254 256 258 265 264 259 260 264 264 262 261 260 259 258 260 267 270 266 259 250 241 236 233 233 233 229 226 221 216 214 211 213 214 204 199 204 206 201 205 212 210 206 199 196 199 193 187 186 182 185 185 176 182 189 169 161 178 175 170 177
121 128 155 165 131 122 122 135 177 229 245 256 269 269 266 257 254 256 253 252 251 250 253 251 246 245 245 249 258 259 255 255 262 264 262 260 257 256 258 260 260 261 260 260 258 247 238 237 235 231 227 223 219 216 215 211 209 211 208 206 209 208 202 205 204 198 205 206 192 187 186 184 182 182 187 189 181 182 181 167 170 178 169 175 180
Height
1508 1507 1508 1509 1511 1511 1513 1514 1515 1516 1517 1518 1519 1521 1522 1523 1524 1525 1525 1526 1527 1528 1528 1528 1528 1529 1529 1528 1528 1528 1529 1529 1530 1531 1531 1532 1533 1533 1534 1534 1534 1535 1535 1535 1535 1535 1535 1535 1535 1536 1535 1535 1535 1536 1536 1536 1536 1536 1536 1535 1536 1536 1536 1535 1535 1534 1534 1535 1535 1535 1535 1535 1535 1536 1536 1536 1536 1535 1535 1535 1535 1535 1534 1534 1534
1507 1507 1508 1510 1511 1511 1513 1514 1516 1517 1518 1519 1520 1521 1522 1524 1524 1525 1526 1527 1528 1528 1529 1529 1529 1529 1530 1529 1529 1529 1530 1530 1531 1532 1532 1533 1534 1535 1535 1535 1536 1536 1536 1536 1536 1536 1537 1537 1537 1537 1537 1537 1537 1537 1537 1537 1537 1537 1536 1536 1536 1537 1537 1536 1536 1535 1535 1536 1536 1536 1537 1537 1537 1537 1537 1537 1537 1536 1536 1536 1536 1536 1536 1536 1536
1507 1508 1508 1510 1511 1512 1514 1515 1516 1517 1519 1520 1521 1522 1523 1524 1525 1526 1527 1528 1528 1529 1529 1529 1530 1530 1530 1530 1530 1530 1530 1531 1532 1533 1534 1535 1535 1536 1536 1537 1537 1537 1537 1537 1538 1538 1538 1538 1538 1538 1538 1538 1538 1538 1538 1538 1538 1538 1537 1537 1537 1538 1538 1537 1537 1536 1536 1537 1537 1537 1538 1538 1538 1538 1538 1539 1538 1538 1538 1538 1538 1538 1537 1538 1537
1508 1508 1509 1511 1512 1513 1514 1516 1517 1518 1520 1520 1522 1523 1524 1525 1526 1527 1527 1529 1529 1530 1530 1530 1531 1531 1531 1530 1531 1531 1531 1532 1533 1534 1535 1536 1536 1537 1538 1538 1538 1538 1538 1539 1539 1539 1540 1540 1540 1540 1540 1540 1539 1539 1539 1539 1539 1539 1538 1538 1538 1538 1539 1538 1538 1538 1538 1538 1538 1539 1540 1540 1539 1539 1540 1540 1540 1540 1539 1539 1539 1539 1539 1539 1539
1509 1509 1509 1511 1512 1514 1515 1516 1518 1519 1520 1521 1522 1523 1524 1525 1526 1527 1528 1529 1530 1530 1531 1531 1531 1531 1531 1531 1531 1531 1532 1533 1534 1535 1536 1537 1538 1538 1539 1539 1539 1540 1540 1540 1540 1540 1541 1541 1541 1541 1541 1541 1540 1540 1540 1539 1539 1539 1539 1539 1539 1539 1539 1539 1539 1539 1539 1540 1541 1542 1543 1542 1541 1541 1541 1541 1541 1541 1541 1541 1541 1541 1541 1540 1540
1510 1509 1510 1511 1512 1514 1516 1517 1518 1520 1521 1522 1523 1524 1525 1526 1527 1528 1529 1530 1530 1531 1531 1532 1532 1532 1531 1532 1532 1532 1533 1534 1535 1536 1537 1538 1539 1539 1540 1540 1540 1541 1541 1542 1542 1542 1542 1542 1542 1542 1542 1542 1542 1541 1541 1540 1540 1540 1540 1540 1540 1540 1540 1541 1540 1541 1541 1542 1543 1545 1545 1544 1542 1542 1542 1542 1542 1542 1542 1542 1542 1542 1542 1542 1542
1510 1510 1511 1512 1513 1514 1517 1518 1519 1520 1521 1523 1524 1525 1525 1526 1527 1528 1529 1530 1530 1531 1531 1532 1532 1532 1532 1532 1532 1533 1533 1534 1535 1536 1537 1538 1539 1540 1541 1541 1541 1542 1542 1542 1543 1543 1543 1544 1543 1543 1543 1543 1543 1542 1542 1542 1541 1541 1541 1541 1541 1541 1541 1542 1542 1542 1542 1543 1546 1547 1546 1545 1543 1543 1543 1543 1543 1543 1543 1543 1543 1543 1543 1543 1543
1510 1512 1513 1513 1513 1515 1517 1518 1520 1521 1522 1523 1524 1525 1526 1527 1527 1528 1529 1530 1531 1531 1532 1532 1532 1532 1532 1533 1533 1533 1534 1535 1536 1537 1538 1539 1540 1541 1542 1542 1542 1543 1543 1543 1544 1544 1544 1545 1545 1544 1544 1544 1544 1544 1543 1543 1543 1542 1542 1542 1542 1542 1543 1543 1543 1544 1544 1546 1548 1548 1547 1546 1544 1544 1544 1544 1544 1544 1544 1544 1544 1544 1544 1544 1544
1511 1513 1514 1514 1514 1515 1517 1519 1520 1521 1522 1523 1524 1525 1526 1527 1527 1528 1529 1530 1530 1531 1532 1532 1532 1532 1532 1533 1533 1534 1534 1535 1536 1537 1538 1539 1540 1541 1542 1542 1543 1543 1544 1544 1545 1545 1545 1546 1546 1545 1545 1545 1545 1545 1544 1544 1544 1543 1543 1543 1543 1544 1544 1545 1545 1545 1546 1548 1548 1548 1548 1547 1545 1544 1545 1545 1545 1544 1544 1545 1545 1545 1545 1546 1546
1512 1513 1514 1514 1514 1516 1517 1519 1520 1521 1522 1523 1524 1525 1525 1526 1527 1528 1529 1530 1530 1531 1532 1532 1532 1532 1532 1533 1533 1534 1535 1535 1536 1538 1539 1539 1540 1541 1542 1543 1543 1544 1544 1545 1545 1546 1546 1547 1547 1547 1547 1546 1546 1546 1546 1545 1545 1545 1544 1544 1544 1545 1546 1546 1546 1547 1548 1548 1548 1547 1547 1547 1546 1545 1545 1545 1545 1545 1545 1546 1546 1546 1546 1547 1547
1512 1513 1514 1514 1515 1516 1517 1519 1520 1521 1522 1523 1524 1524 1525 1526 1527 1528 1528 1529 1530 1531 1532 1532 1532 1532 1533 1533 1534 1535 1535 1536 1537 1538 1539 1540 1540 1541 1542 1543 1544 1544 1545 1545 1546 1547 1547 1548 1547 1548 1548 1548 1547 1547 1547 1546 1546 1546 1546 1546 1546 1546 1547 1547 1547 1550 1551 1549 1549 1548 1547 1547 1546 1546 1546 1546 1546 1546 1546 1546 1547 1547 1547 1547 1547
1512 1513 1513 1513 1515 1516 1517 1519 1520 1521 1522 1523 1523 1524 1525 1526 1526 1527 1528 1529 1529 1530 1531 1532 1532 1532 1533 1534 1534 1535 1536 1537 1537 1538 1539 1540 1541 1542 1542 1543 1544 1545 1546 1546 1547 1547 1548 1548 1548 1549 1549 1549 1549 1548 1548 1548 1547 1547 1547 1547 1547 1547 1549 1549 1550 1553 1552 1551 1550 1549 1548 1547 1547 1546 1546 1547 1547 1547 1547 1547 1547 1547 1548 1548 1548
1512 1513 1513 1513 1515 1516 1517 1519 1520 1521 1521 1522 1523 1524 1525 1525 1526 1527 1528 1528 1529 1530 1531 1532 1532 1532 1533 1534 1535 1535 1536 1537 1538 1539 1539 1540 1542 1542 1543 1544 1545 1546 1546 1547 1547 1547 1548 1549 1549 1550 1550 1550 1550 1550 1549 1549 1549 1548 1548 1548 1548 1549 1549 1551 1553 1554 1553 1552 1551 1550 1549 1548 1547 1547 1548 1548 1548 1548 1548 1548 1548 1548 1549 1549 1549
1512 1512 1513 1514 1515 1516 1517 1519 1520 1521 1521 1522 1523 1524 1525 1525 1526 1526 1527 1528 1529 1530 1531 1531 1532 1533 1533 1534 1535 1536 1537 1538 1539 1539 1540 1541 1542 1543 1543 1544 1545 1546 1547 1547 1548 1548 1549 1549 1550 1551 1551 1551 1551 1551 1550 1550 1550 1550 1550 1549 1549 1550 1550 1552 1555 1555 1554 1553 1551 1550 1549 1549 1549 1548 1548 1549 1549 1549 1549 1549 1549 1549 1549 1550 1550
1512 1512 1513 1514 1515 1516 1518 1519 1520 1521 1522 1523 1524 1524 1525 1525 1526 1526 1527 1527 1528 1529 1530 1531 1532 1533 1534 1535 1536 1537 1537 1538 1539 1540 1540 1541 1542 1543 1544 1545 1546 1547 1548 1548 1548 1548 1549 1550 1551 1551 1552 1552 1552 1552 1551 1551 1551 1551 1551 1550 1550 1551 1551 1554 1557 1556 1555 1554 1552 1552 1551 1550 1550 1550 1550 1549 1550 1550 1550 1550 1550 1550 1550 1550 1550
1512 1512 1513 1514 1515 1516 1518 1519 1521 1522 1523 1524 1525 1525 1526 1526 1526 1527 1527 1527 1528 1529 1530 1531 1533 1534 1535 1536 1536 1537 1538 1539 1539 1540 1541 1541 1542 1543 1544 1545 1546 1547 1548 1548 1549 1549 1550 1551 1551 1552 1553 1553 1553 1553 1553 1552 1552 1552 1552 1552 1551 1552 1552 1555 1558 1557 1557 1555 1554 1553 1552 1552 1551 1551 1551 1551 1551 1551 1551 1551 1551 1551 1551 1551 1551
1512 1512 1513 1514 1516 1517 1518 1520 1522 1524 1525 1526 1527 1527 1527 1527 1527 1527 1527 1528 1528 1529 1531 1532 1534 1535 1536 1536 1537 1538 1539 1539 1540 1541 1541 1542 1542 1543 1545 1545 1546 1547 1548 1549 1549 1550 1550 1551 1552 1553 1553 1553 1554 1554 1554 1553 1553 1553 1553 1553 1552 1553 1554 1555 1558 1558 1558 1557 1555 1554 1553 1552 1552 1552 1552 1552 1552 1552 1552 1552 1552 1552 1552 1552 1552
1512 1513 1514 1515 1516 1518 1520 1521 1523 1525 1526 1527 1528 1528 1528 1528 1528 1527 1528 1528 1529 1530 1532 1533 1534 1536 1537 1537 1538 1539 1539 1540 1541 1542 1542 1542 1542 1543 1544 1545 1547 1547 1548 1549 1550 1550 1551 1552 1553 1553 1554 1554 1554 1554 1554 1555 1555 1555 1554 1554 1554 1555 1555 1556 1558 1559 1558 1557 1555 1554 1554 1553 1553 1553 1553 1553 1553 1553 1553 1552 1553 1553 1553 1553 1553
1513 1515 1515 1516 1518 1519 1521 1523 1525 1526 1528 1528 1529 1529 1529 1529 1528 1528 1529 1529 1530 1532 1533 1534 1536 1537 1538 1538 1539 1540 1540 1541 1542 1543 1543 1543 1543 1544 1544 1546 1547 1547 1548 1549 1550 1551 1551 1552 1553 1554 1554 1555 1555 1555 1555 1555 1555 1555 1555 1555 1555 1556 1556 1558 1560 1560 1559 1557 1556 1555 1555 1554 1554 1554 1554 1554 1554 1553 1553 1553 1553 1553 1553 1553 1553
1514 1515 1516 1518 1519 1521 1523 1525 1527 1529 1530 1530 1530 1530 1530 1530 1530 1530 1530 1531 1532 1533 1535 1536 1537 1538 1539 1539 1540 1541 1541 1542 1543 1544 1544 1544 1544 1544 1545 1546 1546 1547 1548 1548 1550 1551 1552 1553 1554 1554 1555 1555 1555 1556 1556 1556 1556 1556 1556 1556 1556 1556 1557 1560 1561 1560 1559 1558 1557 1556 1556 1555 1555 1555 1554 1554 1554 1554 1554 1554 1554 1554 1554 1554 1554
1514 1516 1517 1519 1520 1522 1524 1525 1527 1530 1532 1533 1532 1532 1531 1531 1531 1532 1532 1533 1534 1536 1536 1537 1538 1539 1540 1541 1541 1542 1543 1543 1544 1545 1545 1546 1545 1545 1545 1546 1546 1547 1548 1548 1549 1551 1552 1553 1554 1555 1555 1556 1556 1556 1556 1556 1557 1557 1557 1557 1556 1557 1559 1561 1561 1561 1560 1558 1557 1557 1556 1556 1555 1555 1555 1555 1555 1555 1555 1555 1555 1555 1554 1554 1554
1514 1516 1517 1519 1520 1522 1523 1524 1526 1527 1530 1533 1534 1533 1533 1533 1533 1533 1534 1535 1537 1538 1539 1539 1540 1540 1541 1541 1543 1544 1545 1545 1545 1545 1546 1546 1546 1546 1546 1546 1546 1547 1548 1549 1549 1550 1552 1553 1554 1555 1556 1556 1557 1557 1557 1557 1557 1557 1558 1557 1557 1559 1560 1561 1562 1562 1560 1558 1558 1558 1557 1556 1556 1556 1556 1555 1555 1555 1555 1556 1555 1555 1555 1555 1555
1514 1516 1517 1518 1520 1522 1523 1524 1526 1526 1528 1531 1533 1535 1534 1534 1534 1534 1535 1537 1539 1540 1540 1541 1540 1540 1541 1542 1544 1546 1547 1547 1547 1547 1547 1547 1547 1546 1546 1546 1546 1547 1548 1549 1550 1550 1552 1553 1554 1555 1556 1556 1557 1557 1558 1558 1558 1558 1558 1558 1559 1560 1560 1561 1562 1561 1559 1558 1558 1558 1557 1557 1557 1556 1556 1556 1556 1556 1556 1556 1556 1556 1556 1556 1556
1514 1515 1516 1518 1519 1521 1523 1525 1527 1528 1528 1529 1532 1535 1536 1535 1535 1536 1537 1538 1538 1538 1539 1539 1539 1539 1541 1543 1545 1547 1549 1549 1549 1549 1548 1547 1547 1547 1546 1546 1546 1546 1547 1548 1550 1550 1552 1553 1554 1555 1556 1556 1557 1558 1559 1559 1559 1558 1559 1559 1560 1561 1561 1562 1562 1560 1559 1558 1558 1558 1557 1557 1557 1557 1557 1556 1556 1556 1556 1556 1556 1556 1556 1556 1556
1514 1515 1516 1518 1519 1521 1522 1525 1526 1527 1529 1530 1531 1535 1536 1536 1536 1536 1536 1536 1535 1535 1536 1537 1537 1538 1540 1543 1545 1546 1549 1550 1550 1550 1550 1549 1548 1547 1546 1546 1546 1546 1546 1547 1549 1550 1551 1553 1554 1555 1555 1556 1558 1560 1560 1559 1559 1559 1560 1561 1561 1561 1562 1562 1561 1560 1559 1558 1558 1558 1557 1557 1557 1557 1557 1557 1557 1556 1556 1556 1556 1556 1556 1556 1556
1514 1515 1516 1517 1518 1521 1523 1525 1526 1527 1529 1531 1532 1534 1535 1535 1536 1535 1534 1534 1534 1535 1536 1536 1537 1538 1540 1542 1544 1546 1548 1549 1550 1551 1552 1551 1549 1548 1547 1546 1546 1545 1545 1546 1547 1549 1551 1552 1553 1554 1555 1556 1559 1560 1560 1560 1560 1560 1560 1561 1561 1562 1562 1562 1561 1560 1558 1558 1558 1558 1557 1557 1557 1557 1557 1557 1556 1556 1556 1556 1556 1556 1556 1556 1556
1514 1515 1516 1518 1519 1521 1524 1525 1526 1528 1530 1532 1534 1535 1534 1534 1534 1533 1533 1533 1534 1536 1537 1537 1537 1538 1539 1541 1544 1545 1547 1547 1548 1551 1552 1552 1551 1549 1548 1547 1546 1545 1544 1545 1546 1547 1550 1551 1552 1554 1555 1557 1558 1559 1559 1559 1560 1560 1560 1560 1561 1562 1562 1562 1562 1560 1558 1558 1558 1558 1557 1557 1557 1557 1557 1557 1556 1556 1556 1556 1556 1556 1556 1556 1556
1514 1515 1516 1518 1519 1521 1523 1525 1526 1528 1530 1533 1534 1535 1534 1534 1534 1532 1531 1533 1534 1536 1538 1538 1539 1538 1539 1542 1543 1545 1546 1546 1547 1549 1551 1552 1552 1550 1549 1548 1547 1545 1544 1545 1545 1546 1549 1550 1551 1553 1555 1556 1557 1558 1558 1559 1560 1560 1560 1560 1561 1561 1562 1562 1562 1560 1559 1557 1557 1557 1557 1557 1557 1557 1557 1557 1557 1557 1556 1556 1556 1556 1556 1556 1556
1515 1515 1517 1518 1519 1521 1523 1524 1526 1527 1528 1530 1532 1534 1533 1533 1533 1531 1531 1533 1534 1537 1539 1539 1539 1539 1540 1542 1543 1545 1545 1544 1545 1547 1549 1551 1551 1550 1548 1547 1547 1546 1544 1544 1545 1546 1548 1550 1551 1553 1554 1555 1556 1557 1557 1558 1559 1560 1560 1560 1560 1560 1561 1561 1561 1561 1559 1558 1557 1557 1557 1557 1557 1557 1557 1557 1557 1557 1557 1556 1556 1556 1556 1556 1556
1515 1516 1517 1519 1519 1521 1523 1524 1524 1524 1526 1528 1531 1532 1532 1532 1532 1531 1531 1532 1533 1535 1538 1539 1539 1539 1541 1542 1543 1543 1543 1543 1545 1546 1547 1548 1549 1548 1546 1545 1545 1546 1545 1544 1544 1545 1547 1549 1550 1552 1553 1554 1555 1555 1556 1557 1558 1559 1560 1560 1560 1559 1560 1561 1561 1561 1560 1558 1557 1557 1558 1557 1558 1558 1557 1557 1557 1557 1557 1557 1556 1556 1556 1556 1556
1515 1516 1517 1518 1519 1521 1522 1522 1523 1524 1525 1527 1529 1530 1531 1531 1530 1530 1530 1531 1531 1532 1535 1537 1538 1540 1541 1542 1541 1541 1541 1541 1543 1544 1545 1545 1547 1547 1545 1544 1543 1545 1545 1544 1544 1543 1546 1547 1548 1550 1552 1553 1554 1554 1555 1556 1557 1558 1559 1559 1559 1559 1560 1560 1561 1560 1560 1558 1557 1557 1558 1558 1558 1558 1558 1558 1558 1557 1557 1557 1556 1556 1556 1556 1557
1515 1516 1517 1518 1519 1520 1521 1522 1523 1524 1525 1526 1528 1529 1530 1530 1529 1529 1530 1530 1531 1531 1533 1534 1536 1539 1540 1539 1539 1539 1539 1539 1540 1542 1543 1543 1544 1544 1544 1543 1542 1544 1545 1544 1543 1542 1544 1546 1547 1549 1551 1552 1553 1553 1554 1555 1556 1557 1558 1558 1559 1559 1559 1560 1560 1560 1560 1559 1558 1557 1557 1558 1558 1558 1558 1558 1558 1557 1557 1557 1556 1556 1556 1557 1557
1516 1516 1516 1518 1518 1519 1521 1522 1523 1524 1525 1526 1527 1528 1528 1528 1528 1528 1529 1529 1529 1530 1530 1530 1532 1536 1537 1536 1538 1539 1537 1537 1538 1540 1542 1542 1542 1542 1542 1542 1542 1544 1545 1544 1543 1543 1544 1545 1546 1548 1549 1551 1552 1552 1553 1554 1555 1556 1557 1557 1558 1558 1558 1559 1559 1559 1559 1559 1559 1558 1558 1558 1558 1558 1558 1558 1558 1557 1557 1557 1556 1556 1556 1557 1557
1517 1517 1516 1517 1518 1519 1520 1521 1522 1523 1524 1524 1525 1526 1526 1527 1527 1527 1527 1527 1527 1527 1526 1527 1528 1532 1533 1533 1536 1536 1535 1535 1536 1538 1539 1539 1540 1540 1540 1540 1540 1544 1546 1544 1543 1543 1544 1545 1545 1547 1548 1549 1550 1551 1552 1553 1554 1555 1556 1556 1557 1557 1557 1559 1559 1558 1558 1559 1559 1560 1559 1558 1558 1558 1558 1558 1558 1557 1557 1557 1557 1556 1557 1557 1557
1516 1516 1517 1517 1518 1518 1520 1521 1521 1522 1523 1523 1523 1525 1525 1526 1526 1525 1525 1525 1525 1525 1524 1525 1527 1529 1529 1530 1533 1534 1534 1535 1535 1536 1536 1537 1537 1538 1538 1539 1539 1542 1543 1543 1542 1542 1543 1544 1544 1546 1546 1547 1549 1549 1550 1551 1552 1554 1553 1554 1556 1555 1556 1558 1558 1558 1558 1558 1559 1559 1559 1559 1559 1559 1558 1558 1558 1557 1557 1557 1557 1556 1557 1557 1557
1516 1516 1517 1517 1518 1519 1519 1520 1521 1521 1522 1522 1523 1523 1523 1524 1524 1523 1524 1524 1524 1523 1523 1525 1526 1527 1527 1528 1531 1532 1532 1534 1534 1534 1534 1534 1534 1535 1536 1537 1538 1540 1541 1541 1541 1541 1541 1542 1543 1544 1545 1545 1547 1547 1548 1549 1550 1551 1551 1553 1554 1554 1556 1557 1557 1558 1557 1558 1558 1559 1559 1559 1559 1559 1558 1558 1558 1558 1557 1557 1557 1557 1557 1557 1557
1515 1516 1517 1518 1518 1519 1519 1520 1521 1521 1521 1522 1522 1522 1523 1523 1523 1523 1524 1523 1523 1523 1523 1524 1525 1526 1526 1527 1529 1530 1531 1532 1532 1532 1532 1532 1532 1533 1534 1535 1537 1538 1540 1540 1540 1540 1540 1541 1543 1543 1544 1544 1545 1546 1546 1546 1548 1548 1549 1552 1553 1554 1556 1556 1556 1557 1557 1557 1558 1558 1558 1558 1559 1558 1558 1558 1558 1558 1558 1557 1557 1557 1557 1557 1558
1515 1516 1516 1518 1519 1519 1519 1520 1521 1521 1521 1521 1522 1522 1522 1523 1523 1523 1523 1523 1523 1523 1523 1523 1524 1525 1525 1526 1527 1528 1529 1529 1529 1529 1529 1530 1530 1531 1532 1533 1535 1537 1538 1539 1539 1539 1539 1542 1543 1543 1543 1543 1544 1544 1543 1544 1546 1546 1547 1550 1551 1553 1555 1555 1555 1557 1557 1557 1557 1557 1557 1557 1558 1558 1558 1557 1558 1559 1558 1558 1558 1558 1559 1558 1559
1515 1515 1516 1518 1519 1519 1519 1520 1521 1521 1521 1521 1522 1522 1522 1522 1523 1523 1523 1523 1523 1522 1522 1522 1523 1524 1524 1526 1526 1527 1528 1527 1527 1528 1528 1528 1528 1529 1530 1532 1534 1535 1537 1537 1538 1538 1539 1541 1543 1542 1542 1542 1542 1542 1542 1543 1544 1545 1546 1548 1550 1552 1554 1554 1555 1556 1556 1556 1556 1556 1556 1557 1558 1558 1558 1557 1558 1559 1559 1559 1559 1559 1560 1560 1560
1515 1516 1517 1518 1519 1520 1520 1520 1521 1521 1521 1522 1522 1522 1522 1522 1523 1523 1523 1522 1522 1522 1522 1522 1522 1523 1523 1524 1525 1525 1526 1526 1526 1526 1526 1526 1527 1528 1529 1531 1532 1534 1535 1536 1536 1537 1537 1539 1541 1541 1541 1541 1542 1541 1542 1542 1543 1544 1545 1546 1549 1551 1552 1552 1554 1555 1555 1555 1555 1556 1556 1557 1557 1557 1558 1558 1558 1559 1559 1559 1560 1560 1560 1560 1561
1515 1516 1517 1519 1520 1520 1520 1520 1521 1521 1521 1522 1522 1522 1522 1522 1523 1523 1523 1522 1521 1521 1521 1521 1522 1522 1522 1523 1524 1524 1524 1525 1525 1525 1525 1525 1526 1527 1528 1529 1530 1531 1533 1534 1535 1536 1536 1537 1538 1540 1540 1541 1541 1541 1540 1540 1541 1543 1544 1545 1548 1549 1550 1551 1553 1554 1554 1554 1555 1555 1556 1556 1556 1556 1558 1558 1558 1558 1558 1559 1560 1560 1561 1561 1561
1516 1517 1518 1519 1520 1520 1520 1520 1521 1521 1521 1521 1522 1522 1522 1522 1522 1522 1522 1522 1521 1521 1521 1521 1521 1521 1522 1522 1522 1523 1523 1523 1524 1524 1525 1525 1526 1526 1527 1528 1529 1529 1530 1531 1532 1533 1534 1535 1536 1537 1539 1540 1540 1539 1539 1539 1540 1542 1543 1545 1546 1548 1549 1550 1551 1552 1552 1553 1554 1554 1555 1555 1555 1556 1557 1558 1558 1558 1559 1559 1560 1560 1561 1561 1562
1515 1516 1517 1518 1519 1520 1520 1520 1520 1520 1520 1520 1521 1521 1521 1520 1520 1521 1521 1521 1521 1521 1521 1521 1521 1521 1520 1521 1521 1521 1522 1522 1523 1523 1523 1525 1525 1526 1526 1527 1527 1528 1529 1529 1530 1530 1532 1533 1534 1534 1536 1538 1538 1538 1538 1539 1540 1541 1542 1544 1545 1546 1547 1548 1549 1550 1551 1552 1552 1553 1553 1554 1555 1555 1556 1557 1558 1559 1559 1559 1560 1561 1561 1562 1562
1515 1516 1516 1517 1519 1519 1519 1519 1519 1520 1520 1520 1520 1520 1520 1519 1519 1519 1520 1520 1520 1520 1520 1520 1520 1520 1520 1520 1520 1520 1521 1521 1521 1522 1522 1523 1524 1525 1525 1525 1526 1526 1527 1528 1528 1528 1530 1531 1531 1532 1533 1534 1535 1536 1537 1538 1538 1539 1541 1543 1544 1545 1546 1546 1548 1549 1550 1551 1551 1551 1552 1552 1554 1555 1556 1556 1557 1558 1558 1558 1560 1560 1561 1562 1562
1514 1515 1516 1517 1517 1518 1518 1518 1519 1519 1519 1519 1519 1519 1519 1519 1519 1519 1519 1520 1520 1520 1519 1519 1519 1519 1519 1519 1519 1520 1520 1520 1520 1520 1520 1521 1522 1523 1524 1524 1524 1526 1526 1526 1526 1526 1527 1529 1529 1529 1531 1532 1533 1534 1535 1536 1537 1538 1539 1541 1543 1544 1544 1545 1547 1548 1548 1549 1550 1550 1551 1552 1552 1554 1555 1556 1556 1557 1557 1558 1559 1560 1561 1561 1562
1514 1515 1515 1516 1516 1517 1517 1517 1518 1518 1518 1518 1518 1519 1518 1518 1519 1519 1520 1520 1520 1519 1519 1519 1519 1518 1519 1519 1519 1519 1519 1519 1519 1519 1519 1519 1520 1521 1521 1521 1522 1524 1525 1525 1524 1524 1525 1526 1527 1528 1529 1530 1531 1532 1533 1534 1535 1536 1538 1539 1540 1542 1543 1544 1546 1546 1547 1548 1549 1549 1550 1551 1552 1553 1554 1555 1555 1556 1556 1557 1557 1559 1560 1561 1562
1513 1514 1514 1515 1516 1516 1516 1516 1517 1517 1517 1517 1517 1517 1517 1518 1518 1518 1519 1519 1519 1519 1518 1518 1518 1518 1518 1519 1519 1519 1519 1519 1518 1518 1517 1517 1518 1518 1519 1519 1520 1521 1522 1522 1522 1522 1522 1524 1525 1526 1528 1529 1530 1531 1532 1533 1534 1535 1536 1538 1539 1540 1542 1543 1544 1545 1546 1548 1548 1549 1549 1550 1551 1552 1553 1553 1554 1555 1555 1556 1556 1558 1559 1560 1561
1513 1513 1514 1515 1515 1515 1516 1516 1516 1516 1516 1516 1516 1516 1517 1517 1517 1518 1518 1518 1518 1518 1517 1517 1517 1518 1518 1519 1519 1519 1518 1518 1517 1516 1516 1515 1515 1516 1517 1517 1518 1518 1519 1520 1521 1521 1521 1522 1523 1524 1526 1528 1529 1531 1532 1533 1533 1534 1535 1537 1538 1539 1541 1542 1543 1545 1545 1546 1547 1548 1548 1549 1550 1551 1551 1552 1552 1553 1554 1555 1556 1557 1558 1559 1560
1512 1513 1514 1514 1515 1515 1515 1516 1516 1516 1516 1516 1516 1516 1516 1516 1517 1517 1517 1517 1517 1516 1516 1516 1516 1517 1517 1518 1519 1519 1517 1516 1515 1514 1514 1513 1513 1514 1514 1515 1515 1516 1517 1518 1520 1520 1520 1521 1521 1523 1525 1526 1528 1530 1531 1532 1532 1533 1534 1536 1537 1538 1540 1541 1543 1544 1545 1545 1546 1546 1547 1549 1549 1550 1550 1551 1551 1552 1553 1554 1555 1557 1557 1558 1559
1512 1513 1514 1514 1515 1515 1515 1515 1516 1516 1516 1515 1515 1515 1515 1515 1515 1516 1515 1516 1516 1515 1515 1515 1515 1516 1516 1516 1516 1516 1514 1513 1511 1511 1511 1511 1511 1511 1511 1512 1513 1514 1515 1516 1517 1518 1519 1519 1520 1522 1524 1526 1528 1529 1530 1530 1531 1532 1533 1534 1535 1537 1538 1540 1542 1544 1544 1544 1544 1545 1546 1547 1548 1549 1550 1550 1551 1552 1553 1554 1555 1556 1557 1558 1558
1512 1513 1514 1514 1514 1514 1515 1515 1516 1516 1516 1515 1515 1514 1514 1514 1514 1514 1514 1514 1514 1514 1514 1514 1514 1515 1515 1513 1512 1511 1510 1509 1508 1507 1508 1509 1509 1510 1510 1510 1511 1512 1514 1514 1515 1516 1517 1518 1519 1521 1523 1525 1526 1527 1528 1529 1530 1532 1533 1534 1535 1536 1537 1538 1540 1542 1543 1543 1543 1544 1545 1546 1547 1548 1548 1549 1551 1552 1552 1553 1554 1555 1556 1557 1557